{"data":{"norad_id":54802,"intl_designator":"2022-175AW","name":"STARLINK-5426","alt_names":[],"object_type":"PAYLOAD","status":"ACTIVE","operator":null,"country":"US","launch_date":"2022-12-17","launch_site_code":"AFETR","launch_vehicle":null,"mission":null,"orbit_class":"UNKNOWN","rcs_meters":null,"size_class":null,"mass_kg":null,"dimensions":null,"purposes":["comms"],"wikipedia_slug":null,"has_3d_model":false,"image_url":null,"decayed_at":null,"tle_current":{"epoch":"2026-05-24T21:53:01.186656Z","epoch_age_seconds":79335,"freshness":"FRESH","line1":"1 54802U 22175AW  26144.91181929  .00002228  00000+0  16161-3 0  9994","line2":"2 54802  53.2189   6.4221 0001284  65.2954 294.8172 15.07990356192202","mean_motion":15.07990356,"eccentricity":0.0001284,"inclination_deg":53.2189,"raan_deg":6.4221,"arg_perigee_deg":65.2954,"mean_anomaly_deg":294.8172,"bstar":0.00016161,"rev_number":19220,"period_min":95.491326868937,"perigee_km":541.45304059674,"apogee_km":543.23021950894,"semimajor_km":6920.4786300528,"source":"CELESTRAK","updated_at":"2026-05-25T13:38:17.697269Z"}}}